Location: Unspecified
(0.0000°N, 0.0000°E)
Time: 09:19:50
(UTC+00:00)

SR - Visible Passes

Search period start: 26 April 2018 00:00
Search period end: 06 May 2018 00:00
Orbit: 578 x 879 km, 66.7° (Epoch: 25 April)

Date Brightness Start Highest point End Pass type
(mag) Time Alt. Az. Time Alt. Az. Time Alt. Az.
29 Apr ? 20:40:21 10° N 20:40:42 12° N 20:40:42 12° N visible
30 Apr ? 19:51:48 10° NNE 19:53:14 16° NNE 19:53:14 16° NNE visible
01 May ? 19:05:35 10° NE 19:05:50 10° NE 19:05:50 10° NE visible
01 May ? 20:43:20 10° NNW 20:45:18 22° NW 20:45:18 22° NW visible
02 May ? 19:53:50 10° N 19:58:00 44° NNE 19:58:00 44° NNE visible
03 May ? 19:05:22 10° NNE 19:10:09 26° ENE 19:10:47 25° E visible
03 May ? 20:47:12 10° NW 20:50:16 23° W 20:50:16 23° W visible
04 May ? 18:20:07 10° ENE 18:20:36 10° ENE 18:21:06 10° ENE visible
04 May ? 19:56:43 10° NNW 20:02:34 62° WSW 20:03:06 59° SW visible
05 May ? 19:07:19 10° N 19:13:05 56° ENE 19:15:59 29° SE visible
05 May ? 20:53:16 10° W 20:54:57 11° WSW 20:55:30 11° WSW visible
